Location: Peebles
(55.6412°N, 3.1714°W)
Time: 06:00:46
(UTC+01:00)

deb NNS O-4 - Pass Details

Date: 04 July 2022
Orbit: 977 x 1074 km, 89.9° (Epoch: 16 August)

Event Time Altitude Azimuth Distance (km) Brightness Sun altitude
Exits shadow 00:57:53 - 132° (SE) 3,600 ? -11.4°
Reaches altitude 10° 01:00:03 10° 123° (ESE) 2,904 ? -11.4°
Maximum altitude 01:05:28 28° 68° (ENE) 1,900 ? -11.4°
Drops below altitude 10° 01:10:51 10° 14° (NNE) 2,881 ? -11.5°
Sets 01:13:44 0° 3° (N) 3,825 ? -11.5°
